TimeCST,TemperatureF,Dew PointF,Humidity,Sea Level PressureIn,VisibilityMPH,Wind Direction,Wind SpeedMPH,Gust SpeedMPH,PrecipitationIn,Events,Conditions,WindDirDegrees,DateUTC
12:15 AM,26.4,13.6,59,30.28,10.0,WNW,9.2,-,N/A,,Clear,290,2013-02-20 06:15:00
12:35 AM,26.4,13.3,58,30.29,10.0,WNW,12.7,-,N/A,,Clear,300,2013-02-20 06:35:00
12:55 AM,26.2,13.6,59,30.29,10.0,WNW,11.5,17.3,N/A,,Clear,300,2013-02-20 06:55:00
1:15 AM,25.9,13.6,60,30.29,10.0,WNW,12.7,17.3,N/A,,Clear,290,2013-02-20 07:15:00
1:35 AM,25.7,10.8,53,30.29,10.0,WNW,13.8,18.4,N/A,,Clear,300,2013-02-20 07:35:00
1:55 AM,25.2,11.1,55,30.29,10.0,WNW,15.0,20.7,N/A,,Clear,300,2013-02-20 07:55:00
2:15 AM,24.6,11.5,57,30.29,10.0,NW,10.4,-,N/A,,Clear,310,2013-02-20 08:15:00
2:35 AM,24.3,10.8,56,30.29,10.0,NW,13.8,-,N/A,,Clear,310,2013-02-20 08:35:00
2:55 AM,23.9,11.1,58,30.29,10.0,NW,10.4,-,N/A,,Clear,310,2013-02-20 08:55:00
3:15 AM,23.7,11.1,59,30.29,10.0,NW,11.5,-,N/A,,Clear,320,2013-02-20 09:15:00
3:35 AM,23.4,11.7,61,30.29,10.0,NNW,9.2,-,N/A,,Clear,330,2013-02-20 09:35:00
3:55 AM,23.0,10.4,59,30.28,10.0,NNW,11.5,-,N/A,,Clear,330,2013-02-20 09:55:00
4:15 AM,23.0,11.7,62,30.29,10.0,NNW,10.4,-,N/A,,Clear,340,2013-02-20 10:15:00
4:35 AM,22.6,12.6,65,30.29,10.0,North,9.2,-,N/A,,Clear,350,2013-02-20 10:35:00
4:55 AM,21.2,12.2,68,30.31,10.0,North,10.4,16.1,N/A,,Clear,350,2013-02-20 10:55:00
5:15 AM,21.2,10.4,63,30.30,10.0,NNW,13.8,-,N/A,,Clear,340,2013-02-20 11:15:00
5:35 AM,20.8,11.1,66,30.31,10.0,NNW,11.5,-,N/A,,Clear,330,2013-02-20 11:35:00
5:55 AM,20.5,10.9,67,30.32,10.0,NNW,9.2,-,N/A,,Clear,330,2013-02-20 11:55:00
6:15 AM,20.3,10.9,67,30.33,10.0,NNW,8.1,-,N/A,,Clear,330,2013-02-20 12:15:00
6:35 AM,20.1,11.1,68,30.33,10.0,NNW,10.4,-,N/A,,Clear,330,2013-02-20 12:35:00
6:55 AM,20.1,11.8,70,30.33,10.0,North,5.8,-,N/A,,Clear,350,2013-02-20 12:55:00
7:15 AM,20.1,11.1,68,30.33,10.0,NNW,8.1,-,N/A,,Clear,330,2013-02-20 13:15:00
7:35 AM,21.2,12.2,68,30.35,10.0,NW,8.1,-,N/A,,Clear,320,2013-02-20 13:35:00
7:55 AM,20.7,11.5,68,30.36,10.0,NNW,5.8,-,N/A,,Clear,330,2013-02-20 13:55:00
8:15 AM,21.0,11.5,67,30.36,10.0,NNW,8.1,-,N/A,,Clear,340,2013-02-20 14:15:00
8:35 AM,21.2,11.5,66,30.38,10.0,NNW,5.8,-,N/A,,Clear,340,2013-02-20 14:35:00
8:55 AM,21.6,11.5,65,30.38,10.0,WNW,3.5,-,N/A,,Clear,290,2013-02-20 14:55:00
9:15 AM,21.9,12.2,66,30.39,10.0,NW,6.9,-,N/A,,Clear,310,2013-02-20 15:15:00
9:35 AM,21.9,12.6,67,30.38,10.0,NNW,6.9,-,N/A,,Clear,330,2013-02-20 15:35:00
9:55 AM,22.5,12.9,67,30.39,10.0,WNW,6.9,-,N/A,,Clear,290,2013-02-20 15:55:00
10:15 AM,22.6,13.8,69,30.40,10.0,WNW,6.9,-,N/A,,Clear,300,2013-02-20 16:15:00
10:35 AM,22.8,12.9,66,30.40,10.0,WNW,8.1,-,N/A,,Unknown,300,2013-02-20 16:35:00
10:55 AM,23.5,13.8,66,30.40,10.0,NW,6.9,-,N/A,,Clear,310,2013-02-20 16:55:00
11:15 AM,23.4,12.9,64,30.41,10.0,NW,5.8,-,N/A,,Clear,310,2013-02-20 17:15:00
11:35 AM,23.5,13.5,65,30.38,10.0,North,6.9,-,N/A,,Unknown,360,2013-02-20 17:35:00
11:55 AM,23.9,13.8,65,30.38,10.0,NNW,8.1,-,N/A,,Clear,330,2013-02-20 17:55:00
12:15 PM,24.4,14.5,66,30.39,10.0,NW,8.1,-,N/A,,Clear,310,2013-02-20 18:15:00
12:35 PM,24.4,14.5,66,30.38,10.0,NW,8.1,-,N/A,,Clear,310,2013-02-20 18:35:00
12:55 PM,24.8,14.0,64,30.36,10.0,North,6.9,-,N/A,,Clear,350,2013-02-20 18:55:00
1:15 PM,25.0,13.8,63,30.36,10.0,North,5.8,-,N/A,,Clear,10,2013-02-20 19:15:00
1:35 PM,25.7,14.4,62,30.36,10.0,NW,6.9,-,N/A,,Unknown,320,2013-02-20 19:35:00
1:55 PM,25.5,13.5,60,30.36,10.0,NW,4.6,-,N/A,,Unknown,310,2013-02-20 19:55:00
2:15 PM,25.9,13.8,60,30.35,10.0,NW,5.8,-,N/A,,Unknown,320,2013-02-20 20:15:00
2:35 PM,26.2,14.9,62,30.33,10.0,North,5.8,-,N/A,,Unknown,360,2013-02-20 20:35:00
2:55 PM,26.2,14.4,61,30.32,10.0,NE,6.9,-,N/A,,Unknown,40,2013-02-20 20:55:00
3:15 PM,26.1,13.5,59,30.31,10.0,NNW,5.8,-,N/A,,Unknown,340,2013-02-20 21:15:00
3:35 PM,26.2,14.0,60,30.33,10.0,NNW,6.9,-,N/A,,Clear,340,2013-02-20 21:35:00
3:55 PM,26.4,15.3,63,30.33,10.0,North,4.6,-,N/A,,Clear,10,2013-02-20 21:55:00
4:15 PM,26.1,13.8,60,30.31,10.0,NE,5.8,-,N/A,,Clear,40,2013-02-20 22:15:00
4:35 PM,26.4,14.5,61,30.31,10.0,North,6.9,-,N/A,,Clear,10,2013-02-20 22:35:00
4:55 PM,26.4,15.3,63,30.31,10.0,NNE,5.8,-,N/A,,Clear,20,2013-02-20 22:55:00
5:15 PM,26.4,15.4,63,30.30,10.0,NNE,6.9,-,N/A,,Clear,20,2013-02-20 23:15:00
5:35 PM,26.6,15.4,63,30.30,10.0,NNE,6.9,-,N/A,,Clear,20,2013-02-20 23:35:00
5:55 PM,26.4,14.9,62,30.30,10.0,NNE,6.9,-,N/A,,Clear,30,2013-02-20 23:55:00
6:15 PM,26.2,15.3,63,30.30,10.0,NE,6.9,-,N/A,,Scattered Clouds,50,2013-02-21 00:15:00
6:35 PM,25.7,15.4,65,30.31,10.0,NNE,3.5,-,N/A,,Scattered Clouds,30,2013-02-21 00:35:00
6:55 PM,25.7,16.2,67,30.31,10.0,Calm,Calm,-,N/A,,Clear,0,2013-02-21 00:55:00
7:15 PM,25.5,16.3,68,30.31,10.0,NE,4.6,-,N/A,,Scattered Clouds,40,2013-02-21 01:15:00
7:35 PM,25.3,15.8,67,30.30,10.0,NE,4.6,-,N/A,,Scattered Clouds,40,2013-02-21 01:35:00
7:55 PM,25.0,15.6,68,30.31,10.0,NE,3.5,-,N/A,,Clear,40,2013-02-21 01:55:00
8:15 PM,24.8,15.8,69,30.31,10.0,NNE,3.5,-,N/A,,Clear,30,2013-02-21 02:15:00
8:35 PM,24.6,16.3,71,30.32,10.0,NNE,3.5,-,N/A,,Clear,30,2013-02-21 02:35:00
8:55 PM,24.6,16.5,71,30.32,10.0,NE,3.5,-,N/A,,Clear,40,2013-02-21 02:55:00
9:15 PM,24.4,16.3,71,30.32,10.0,NNE,3.5,-,N/A,,Clear,30,2013-02-21 03:15:00
9:35 PM,24.3,16.7,73,30.32,10.0,Calm,Calm,-,N/A,,Clear,0,2013-02-21 03:35:00
9:55 PM,23.9,16.2,72,30.33,10.0,Calm,Calm,-,N/A,,Clear,0,2013-02-21 03:55:00
10:15 PM,23.9,17.6,77,30.32,10.0,Calm,Calm,-,N/A,,Clear,0,2013-02-21 04:15:00
10:35 PM,23.4,18.3,81,30.32,10.0,Calm,Calm,-,N/A,,Clear,0,2013-02-21 04:35:00
10:55 PM,23.2,17.4,79,30.32,10.0,Calm,Calm,-,N/A,,Clear,0,2013-02-21 04:55:00
11:15 PM,23.0,17.1,78,30.31,10.0,Calm,Calm,-,N/A,,Clear,0,2013-02-21 05:15:00
11:35 PM,23.0,16.7,77,30.32,10.0,Calm,Calm,-,N/A,,Clear,0,2013-02-21 05:35:00
11:55 PM,23.0,17.1,78,30.31,10.0,Calm,Calm,-,N/A,,Clear,0,2013-02-21 05:55:00